AB8KN-2 Weather Reports


time (UTC)temp
F
wind
direction
speed
knots
gust
knots
rain 1hr
in
rain 24hr
in
rain mn
in
humidity
%
barometer
mb
20260508154018 60 223 1.7 4.3 0.00 0.00 0.00 51 1014.2
20260508153018 59 209 2.6 4.3 0.00 0.00 0.00 50 1014.4
20260508152015 58 236 0.9 3.5 0.00 0.00 0.00 52 1014.4
20260508151056 57 214 0.9 5.2 0.00 0.00 0.00 55 1014.6
20260508150018 56 202 0.9 2.6 0.00 0.00 0.00 57 1014.6
20260508145036 56 187 0.9 2.6 0.00 0.00 0.00 57 1014.5
20260508144016 55 192 0.9 2.6 0.00 0.00 0.00 58 1014.4
20260508143016 55 196 0.9 3.5 0.00 0.00 0.00 58 1014.1
20260508142016 55 209 1.7 3.5 0.00 0.00 0.00 57 1014.1
20260508141016 55 216 1.7 4.3 0.00 0.00 0.00 56 1014.1
20260508140017 55 198 0.9 3.5 0.00 0.00 0.00 56 1014.1
20260508135057 55 187 2.6 7.0 0.00 0.00 0.00 56 1014.1
20260508134017 55 185 2.6 5.2 0.00 0.00 0.00 56 1014.1
20260508133017 55 185 1.7 6.1 0.00 0.00 0.00 56 1014.2
20260508132016 55 187 1.7 5.2 0.00 0.00 0.00 55 1014.2
20260508131017 56 185 1.7 3.5 0.00 0.00 0.00 55 1014.4
20260508130037 55 188 2.6 6.1 0.00 0.00 0.00 55 1014.6
20260508125038 53 196 2.6 4.3 0.00 0.00 0.00 58 1014.4
20260508124017 52 185 1.7 4.3 0.00 0.00 0.00 60 1014.3
20260508123018 51 194 0.9 5.2 0.00 0.00 0.00 61 1014.1
20260508122015 51 216 0.9 4.3 0.00 0.00 0.00 62 1014.2
20260508121018 50 204 0.9 3.5 0.00 0.00 0.00 62 1014.1
20260508120016 50 181 1.7 6.1 0.00 0.00 0.00 63 1014.1
20260508115016 49 200 0.9 3.5 0.00 0.00 0.00 65 1014.1
20260508114015 48 179 0.9 3.5 0.00 0.00 0.00 66 1014.0
20260508113016 47 192 0.9 3.5 0.00 0.00 0.00 67 1013.8
20260508112016 46 195 1.7 4.3 0.00 0.00 0.00 69 1013.8
20260508111016 46 197 0.9 3.5 0.00 0.00 0.00 70 1013.3
20260508110016 45 185 0.0 1.7 0.00 0.00 0.00 71 1013.3
20260508105017 45 189 0.9 3.5 0.00 0.00 0.00 71 1013.1
20260508104016 44 188 0.9 2.6 0.00 0.00 0.00 72 1012.9
20260508103016 43 205 0.9 2.6 0.00 0.00 0.00 74 1012.8
20260508102017 43 199 0.9 1.7 0.00 0.00 0.00 76 1012.7
20260508101017 42 183 0.0 0.9 0.00 0.00 0.00 77 1012.5
20260508100057 42 221 0.0 0.9 0.00 0.00 0.00 77 1012.4
20260508095017 42 202 0.0 1.7 0.00 0.00 0.00 78 1012.4
20260508094017 42 190 0.0 0.9 0.00 0.00 0.00 79 1012.4
20260508093017 43 190 0.0 0.9 0.00 0.00 0.00 78 1012.4
20260508092017 43 215 0.0 0.9 0.00 0.00 0.00 77 1012.5
20260508091018 43 199 0.0 0.9 0.00 0.00 0.00 78 1012.6
20260508090018 43 198 0.0 1.7 0.00 0.00 0.00 78 1012.5
20260508085018 43 191 0.0 0.9 0.00 0.00 0.00 78 1012.5
20260508084015 43 193 0.0 0.9 0.00 0.00 0.00 78 1012.5
20260508083036 43 188 0.0 1.7 0.00 0.00 0.00 79 1012.5
20260508082015 44 239 0.0 0.9 0.00 0.00 0.00 78 1012.5
20260508081016 44 209 0.0 1.7 0.00 0.00 0.00 77 1012.5
20260508080016 45 184 0.0 1.7 0.00 0.00 0.00 76 1012.4
20260508075016 45 184 0.0 0.9 0.00 0.00 0.00 74 1012.5
20260508074016 46 0.0 0.0 0.00 0.00 0.00 73 1012.5
20260508073037 47 182 0.0 1.7 0.00 0.00 0.00 70 1012.7
20260508072017 48 192 0.0 1.7 0.00 0.00 0.00 68 1012.7
20260508071017 49 187 0.0 0.9 0.00 0.00 0.00 67 1012.9
20260508070037 49 163 0.0 1.7 0.00 0.00 0.00 66 1013.4
20260508065017 50 186 0.0 0.9 0.00 0.00 0.00 65 1013.4
20260508064018 50 238 0.0 1.7 0.00 0.00 0.00 63 1013.6
20260508063038 50 191 0.0 0.9 0.00 0.00 0.00 62 1013.7
20260508062038 50 246 0.9 1.7 0.00 0.00 0.00 59 1013.9
20260508061017 50 205 0.0 0.9 0.00 0.00 0.00 60 1013.7
20260508060018 50 187 0.0 0.9 0.00 0.00 0.00 58 1013.6
20260508055056 50 199 0.9 2.6 0.00 0.00 0.00 59 1013.6
20260508054016 50 193 0.9 2.6 0.00 0.00 0.00 59 1013.5
20260508053015 50 175 0.9 1.7 0.00 0.00 0.00 59 1013.5
20260508052016 50 179 0.9 3.5 0.00 0.00 0.00 58 1013.5
20260508051016 50 173 0.0 1.7 0.00 0.00 0.00 59 1013.3
20260508050016 50 189 0.9 4.3 0.00 0.00 0.00 59 1013.4
20260508045016 49 183 0.9 1.7 0.00 0.00 0.00 61 1013.6
20260508044017 48 190 0.9 3.5 0.00 0.00 0.00 64 1013.6
20260508043016 48 177 0.0 0.9 0.00 0.00 0.00 66 1013.5
20260508042036 48 235 0.0 0.9 0.00 0.00 0.00 66 1013.6
20260508041017 47 183 0.0 0.9 0.00 0.00 0.00 67 1013.6
20260508040017 47 191 0.0 1.7 0.00 0.00 0.00 67 1013.4
20260508035037 47 196 0.0 0.9 0.00 0.00 0.00 67 1013.1
20260508034017 48 216 0.0 0.9 0.00 0.00 0.00 65 1013.1
20260508033017 47 225 0.0 1.7 0.00 0.00 0.00 64 1012.9
20260508032017 47 205 0.0 0.9 0.00 0.00 0.00 67 1013.4
20260508031018 46 218 0.0 0.9 0.00 0.00 0.00 68 1013.4
20260508030018 46 199 0.0 1.7 0.00 0.00 0.00 68 1013.2
20260508025038 46 217 0.0 0.9 0.00 0.00 0.00 68 1012.9
20260508024018 46 187 0.0 1.7 0.00 0.00 0.00 67 1012.8
20260508023018 47 194 0.0 1.7 0.00 0.00 0.00 65 1012.8
20260508022015 47 188 0.0 1.7 0.00 0.00 0.00 63 1012.7
20260508021015 48 206 0.0 0.9 0.00 0.00 0.00 62 1012.8
20260508020016 48 185 0.0 0.9 0.00 0.00 0.00 61 1012.9
20260508015016 49 174 0.0 0.9 0.00 0.00 0.00 59 1012.8
20260508014016 49 193 0.0 0.9 0.00 0.00 0.00 57 1012.7
20260508013037 50 197 0.0 0.9 0.00 0.00 0.00 56 1012.7
20260508012016 51 190 0.0 0.9 0.00 0.00 0.00 54 1012.5
20260508011037 51 190 0.0 0.9 0.00 0.00 0.00 51 1012.5
20260508010017 52 183 0.9 1.7 0.00 0.00 0.00 50 1012.5
20260508005017 53 185 0.0 1.7 0.00 0.00 0.00 48 1012.4
20260508004037 54 222 0.9 2.6 0.00 0.00 0.00 46 1012.5
20260508003017 55 190 0.9 2.6 0.00 0.00 0.00 45 1012.6
20260508002017 56 193 0.9 2.6 0.00 0.00 0.00 44 1012.4
20260508001018 56 214 0.9 2.6 0.00 0.00 0.00 42 1012.4
20260508000018 58 232 0.9 3.5 0.00 0.00 0.00 40 1012.5
20260507235015 59 228 1.7 5.2 0.00 0.00 0.00 39 1012.5
20260507234016 59 227 0.9 3.5 0.00 0.00 0.00 38 1012.6
20260507233016 59 227 1.7 3.5 0.00 0.00 0.00 38 1012.6
20260507232016 59 228 1.7 6.1 0.00 0.00 0.00 38 1012.7
20260507231016 59 227 1.7 3.5 0.00 0.00 0.00 37 1012.6
20260507230016 58 228 1.7 3.5 0.00 0.00 0.00 39 1012.7
20260507225017 60 228 1.7 5.2 0.00 0.00 0.00 38 1012.6
20260507224016 60 229 1.7 7.8 0.00 0.00 0.00 37 1013.0
20260507223017 60 228 2.6 5.2 0.00 0.00 0.00 38 1013.2
20260507222017 59 228 2.6 3.5 0.00 0.00 0.00 38 1012.8
20260507221017 61 230 3.5 8.7 0.00 0.00 0.00 36 1013.2
20260507220017 60 252 3.5 7.8 0.00 0.00 0.00 36 1013.4
20260507215037 59 251 1.7 6.1 0.00 0.00 0.00 37 1013.3
20260507214017 59 256 1.7 6.1 0.00 0.00 0.00 38 1012.4
20260507213017 59 266 2.6 6.1 0.00 0.00 0.00 38 1013.2
20260507212018 59 233 2.6 7.8 0.00 0.00 0.00 38 1012.2
20260507211018 60 228 2.6 6.1 0.00 0.00 0.00 39 1013.2
20260507210038 58 229 2.6 6.1 0.00 0.00 0.00 38 1013.1
20260507205018 58 234 2.6 5.2 0.00 0.00 0.00 40 1012.7
20260507204015 60 261 2.6 7.8 0.00 0.00 0.00 38 1012.9
20260507203015 61 269 2.6 8.7 0.00 0.00 0.00 39 1012.4
20260507202016 60 230 3.5 7.8 0.00 0.00 0.00 39 1013.1
20260507201036 60 234 3.5 6.1 0.00 0.00 0.00 40 1013.0
20260507200016 61 244 2.6 7.8 0.00 0.00 0.00 38 1013.1
20260507195016 60 237 1.7 6.1 0.00 0.00 0.00 39 1013.0
20260507194016 60 253 3.5 7.8 0.00 0.00 0.00 39 1013.5
20260507193057 59 262 2.6 7.8 0.00 0.00 0.00 38 1013.5
20260507192017 59 259 2.6 6.1 0.00 0.00 0.00 38 1013.3
20260507191017 59 269 3.5 11.3 0.00 0.00 0.00 38 1013.4
20260507190017 60 223 2.6 7.8 0.00 0.00 0.00 41 1013.7
20260507185017 59 264 2.6 9.6 0.00 0.00 0.00 41 1013.6
20260507184017 60 256 2.6 10.4 0.00 0.00 0.00 42 1013.8
20260507183017 59 260 2.6 7.0 0.00 0.00 0.00 42 1013.8
20260507182038 59 250 2.6 7.8 0.00 0.00 0.00 44 1013.9
20260507181018 59 265 2.6 8.7 0.00 0.00 0.00 44 1013.8
20260507180018 58 265 2.6 6.1 0.00 0.00 0.00 44 1013.9
20260507175016 58 260 3.5 9.6 0.00 0.00 0.00 45 1013.9
20260507174035 58 264 2.6 8.7 0.00 0.00 0.00 45 1014.1
20260507173015 58 252 2.6 7.0 0.00 0.00 0.00 45 1014.2
20260507172016 58 265 2.6 10.4 0.00 0.00 0.00 43 1014.3
20260507171016 58 260 2.6 7.0 0.00 0.00 0.00 45 1014.4
20260507170016 57 251 2.6 8.7 0.00 0.00 0.00 45 1014.6
20260507165016 58 263 3.5 10.4 0.00 0.00 0.00 43 1014.6
20260507164037 57 226 1.7 7.0 0.00 0.00 0.00 43 1014.8
20260507163016 56 246 1.7 6.1 0.00 0.00 0.00 43 1014.7
20260507162016 56 249 1.7 7.0 0.00 0.00 0.00 44 1014.7
20260507161017 56 254 2.6 7.0 0.00 0.00 0.00 45 1014.7
20260507160017 56 271 2.6 7.0 0.00 0.00 0.00 43 1014.6
20260507155017 56 241 1.7 5.2 0.00 0.00 0.00 44 1014.7